Starlink 35758

operational
NORAD ID: 66229 Int'l Des: 2025-244 Owner: SPXS Country: US Constellation: starlink
NOTLE

About Starlink 35758

Description loading...

Live Position

Loading 3D Globe...

Upcoming Passes

Altitude History

Altitude vs Time

uPlot chart will show altitude changes over time

Two-Line Element Set

1 66229U 25244Z 25348.18293163 .00063195 00000-0 15793-2 0 9998
2 66229 53.1608 268.8074 0001372 93.2552 266.8610 15.39570289 8549
Epoch: Dec 14, 2025 • Age: 27 hours

Current Status

Altitude 450.4 km
Velocity 7.64 km/s
Sub-Earth Point -12.31°S, 107.22°W
Launch Date Oct 28, 2025
Age 0.1 years
Type internet

Technical Details

Classification Payload
Mass 575.00 kg
Dry Mass 530.00 kg
Total Mass 575.00 kg
Length 0.30 m
Diameter 4.10 m
Span 29.00 m
Shape Box + pan
Manufacturer SPXS
Bus Type Starlink V2MO
Phase Status In Orbit
Owner/State SPXS/US

Large Constellations

Loading constellations...